Home   Weather   Nãgpur   Past weeks

Flag for India Past Weather in Nãgpur, Maharashtra, India — Yesterday and Last 2 Weeks

Now
79 °F

Light rain. Partly cloudy.


Feels Like: 82 °F
Forecast: 76 / 85 °F
Wind: No wind

Location: Nagpur Sonegaon

Current Time: Sep 25, 2016 at 2:37:59 AM

Latest Report: Sep 25, 2016 at 1:30 AM


Visibility: 1 mi

Pressure: 29.62 "Hg

Humidity: 89%

Dew Point: 75 °F

Location of NãgpurLocation

Past Weather in Nãgpur — Graph

°F

Nãgpur Temperature Yesterday

Maximum temperature yesterday: 90 °F (at 11:30 AM)
Minimum temperature yesterday: 79 °F (at 11:30 PM)
Average temperature yesterday: 84 °F

High & Low Weather Summary for the Past Weeks

 TemperatureHumidityPressure
High95 °F (Sep 20, 1:30 PM)94% (Sep 11, 3:37 AM)29.83 "Hg (Sep 11, 3:37 AM)
Low75 °F (Sep 13, 6:00 AM)56% (Sep 10, 3:30 PM)29.53 "Hg (Sep 24, 3:00 PM)
Average84 °F78%29.71 "Hg
* Reported Sep 10 1:30 AM — Sep 25 1:30 AM, Nãgpur, Weather by CustomWeather, © 2016

Note: Actual official high and low records may vary slightly from our data, if they occured in-between our weather recording intervals... More about our weather records

Advertising

Nãgpur Weather History for the Previous 24 Hours

Scroll right to see more
 ConditionsComfort  
Time TempWeatherWind HumidityBarometerVisibility
1:30 AM
Sun, Sep 25
79 °FLight rain. Partly cloudy.No wind89%29.62 "Hg1 mi
12:00 AM79 °FLight rain. Partly cloudy.No wind89%29.62 "Hg1 mi
11:30 PM
Sat, Sep 24
79 °FLight rain. Partly cloudy.2 mph89%29.62 "Hg1 mi
11:00 PM81 °FLight rain. Partly cloudy.3 mph84%29.65 "Hg1 mi
10:30 PM81 °FLight rain. Partly cloudy.3 mph79%29.65 "Hg1 mi
10:00 PM81 °FPartly cloudy.3 mph84%29.65 "Hg2 mi
9:30 PM81 °FPartly cloudy.3 mph79%29.65 "Hg2 mi
9:00 PM81 °FPartly cloudy.3 mph84%29.65 "Hg2 mi
8:30 PM81 °FPartly cloudy.6 mph84%29.62 "Hg2 mi
8:00 PM81 °FPartly cloudy.8 mph79%29.59 "Hg2 mi
7:30 PM81 °FPartly cloudy.7 mph79%29.59 "Hg2 mi
7:00 PM81 °FPartly cloudy.10 mph79%29.59 "Hg2 mi
6:30 PM81 °FBroken clouds.9 mph79%29.59 "Hg2 mi
6:00 PM81 °FBroken clouds.10 mph79%29.59 "Hg2 mi
5:30 PM84 °FBroken clouds.6 mph70%29.56 "Hg2 mi
4:30 PM90 °FBroken clouds.No wind67%29.53 "Hg2 mi
4:00 PM90 °FScattered clouds.5 mph63%29.53 "Hg2 mi
3:30 PM90 °FScattered clouds.2 mph63%29.53 "Hg2 mi
3:00 PM90 °FScattered clouds.2 mph63%29.53 "Hg2 mi
2:30 PM90 °FScattered clouds.3 mph63%29.56 "Hg2 mi
1:30 PM90 °FScattered clouds.2 mph63%29.59 "Hg2 mi
1:00 PM90 °FScattered clouds.5 mph63%29.59 "Hg2 mi
12:30 PM88 °FScattered clouds.5 mph70%29.62 "Hg2 mi
11:30 AM90 °FScattered clouds.5 mph71%29.65 "Hg2 mi
11:00 AM88 °FScattered clouds.5 mph70%29.65 "Hg2 mi
10:30 AM88 °FScattered clouds.5 mph70%29.68 "Hg2 mi
9:30 AM86 °FScattered clouds.5 mph75%29.68 "Hg2 mi
9:00 AM86 °FBroken clouds.6 mph75%29.68 "Hg2 mi
8:30 AM84 °FPartly sunny.5 mph79%29.68 "Hg2 mi
8:00 AM84 °FPartly sunny.6 mph79%29.68 "Hg2 mi
7:30 AM82 °FScattered clouds.2 mph84%29.65 "Hg2 mi
7:00 AM81 °FScattered clouds.No wind84%29.62 "Hg2 mi
6:30 AM81 °FPassing clouds.2 mph84%29.65 "Hg2 mi
6:00 AM81 °FPassing clouds.2 mph84%29.62 "Hg2 mi
5:30 AM81 °FPassing clouds.No wind84%29.62 "Hg2 mi
4:00 AM81 °FPassing clouds.2 mph84%29.62 "Hg2 mi
3:30 AM81 °FPassing clouds.2 mph84%29.62 "Hg2 mi
2:30 AM81 °FPassing clouds.3 mph84%29.62 "Hg2 mi
2:00 AM81 °FPassing clouds.No wind84%29.62 "Hg2 mi
Weather by CustomWeather, © 2016

See weather overviewHow to use our weather pages